Flag for South Africa Weather past 2 weeks in Pretoria, South Africa

Now
68 °F

Mild.


Feels Like: 68 °F
Forecast: 55 / 80 °F
Wind: 8 mph from Northeast

Location: Waterkloof Lmb

Current Time: Sep 18, 2014 at 4:30:11 AM

Latest Report: Sep 18, 2014 at 4:00 AM


Visibility: N/A

Pressure: 30.07 "Hg

Humidity: 23%

Dew point: 28 °F

Location of PretoriaLocation

Historic Weather in Pretoria — Graph

°F

Pretoria temperature yesterday

Maximum temperature yesterday: 88 °F (at 2:00 PM)
Minimum temperature yesterday: 66 °F (at 5:00 AM)
Average temperature yesterday: 76 °F

Past Weeks' High & Low Weather Summary

 TemperatureHumidityPressure
High90 °F (Sep 8, 4:00 PM)81% (Sep 4, 6:00 AM)30.48 "Hg (Sep 4, 6:00 AM)
Low39 °F (Sep 4, 6:00 AM)6% (Sep 8, 3:00 PM)30.07 "Hg (Sep 18, 2:00 AM)
Average70 °F31%30.31 "Hg
* Reported Sep 3 3:00 AM — Sep 18 3:00 AM, Pretoria, Weather by CustomWeather, © 2014

Note: Actual official high and low records may vary slightly from our data, if they occured in-between our weather recording intervals... More about our weather records

Advertising

Pretoria weather history for previous 24 hours

 ConditionsComfort  
Time TempWeatherWind HumidityBarometerVisibility
3:00 AM
Sep 18
70 °FMild.13 mph23%30.07 "HgN/A
2:00 AM70 °FMild.10 mph25%30.07 "HgN/A
1:00 AM72 °FMild.14 mph23%30.09 "HgN/A
12:00 AM72 °FMild.9 mph23%30.12 "HgN/A
11:00 PM
Sep 17
75 °FMild.6 mph19%30.12 "HgN/A
10:00 PM75 °FMild.7 mph19%30.12 "HgN/A
9:00 PM70 °FMild.1 mph27%30.12 "HgN/A
8:00 PM73 °FMild.1 mph22%30.12 "HgN/A
7:00 PM77 °FPleasantly warm.2 mph17%30.12 "HgN/A
6:00 PM81 °FPleasantly warm.6 mph16%30.09 "HgN/A
5:00 PM84 °FPleasantly warm.6 mph13%30.09 "HgN/A
4:00 PM88 °FPleasantly warm.9 mph12%30.09 "HgN/A
3:00 PM88 °FPleasantly warm.9 mph13%30.09 "HgN/A
2:00 PM88 °FPleasantly warm.8 mph13%30.12 "HgN/A
1:00 PM86 °FPleasantly warm.8 mph15%30.15 "HgN/A
12:00 PM82 °FPleasantly warm.7 mph17%30.18 "HgN/A
11:00 AM82 °FPleasantly warm.6 mph17%30.21 "HgN/A
10:00 AM79 °FPleasantly warm.7 mph20%30.21 "HgN/A
9:00 AM75 °FMild.7 mph21%30.24 "HgN/A
8:00 AM72 °FMild.7 mph23%30.24 "HgN/A
7:00 AM68 °FMild.6 mph28%30.21 "HgN/A
6:00 AM66 °FMild.7 mph28%30.21 "HgN/A
5:00 AM66 °FMild.7 mph28%30.18 "HgN/A
4:00 AM68 °FMild.8 mph28%30.21 "HgN/A
Weather by CustomWeather, © 2014

See weather overviewHow to use our weather pages